Tunica, MS

1:37 AM CDT on March 25, 2017 (GMT -0500)
Tunica

Weather History for KUTA - May, 2013

Change the Weather History Date:

Wednesday, May 1, 2013

  Actual Average (KAWM) Record (KAWM)
Temperature  
Mean Temperature 68 °F -  
Max Temperature 73 °F 77 °F 90 °F (1987)
Min Temperature 62 °F 57 °F 38 °F (1963)
Cooling Degree Days 2    
Growing Degree Days 18 (Base 50)    
Moisture  
Dew Point 61 °F    
Average Humidity 80    
Maximum Humidity 94    
Minimum Humidity 65    
Precipitation  
Precipitation 0.01 in - - ()
Sea Level Pressure  
Sea Level Pressure 30.01 in    
Wind  
Wind Speed 6 mph (ESE)    
Max Wind Speed 18 mph    
Max Gust Speed 23 mph    
Visibility 10 miles    
Events Rain , Thunderstorm    
Averages and records for this station are not official NWS values.
T = Trace of Precipitation, MM = Missing Value Source: NWS Daily Summary

Daily Weather History Graph

Daily Weather History Graph

Search for Another Location

Airport or City:

Trip Planner

Search our weather history database for the weather conditions in past years. The results will help you decide how hot, cold, wet, or windy it might be!

Date:

Astronomy

May. 01, 2013 Rise Set
Actual Time 6:10 AM CDT 7:46 PM CDT
Civil Twilight 5:43 AM CDT 8:13 PM CDT
Nautical Twilight 5:11 AM CDT 8:46 PM CDT
Astronomical Twilight 4:37 AM CDT 9:20 PM CDT
Moon 12:55 AM CDT (5/1) 11:49 AM CDT (5/1)
Length of Visible Light 14h 29m
Length of Day
13h 35m
Waning Gibbous, 59% of the Moon is Illuminated
May 1
Waning Gibbous
May 2
Last Quarter
May 9
New
May 17
First Quarter
May 24
Full

Hourly Weather History & Observations

Time (CDT) Temp. Dew Point Humidity Pressure Visibility Wind Dir Wind Speed Gust Speed Precip Events Conditions
12:15 AM 68.0 °F 57.2 °F 68% 29.95 in 10.0 mi ESE 5.8 mph - N/A   Clear
12:35 AM 66.2 °F 57.2 °F 73% 29.95 in 10.0 mi ESE 5.8 mph - N/A   Clear
12:55 AM 66.2 °F 57.2 °F 73% 29.95 in 10.0 mi ESE 5.8 mph - N/A   Clear
1:35 AM 64.4 °F 57.2 °F 77% 29.95 in 10.0 mi SE 5.8 mph - N/A   Clear
1:55 AM 64.4 °F 59.0 °F 83% 29.95 in 10.0 mi ESE 4.6 mph - N/A   Scattered Clouds
2:15 AM 64.4 °F 59.0 °F 83% 29.95 in 10.0 mi ESE 4.6 mph - N/A   Scattered Clouds
2:35 AM 64.4 °F 59.0 °F 83% 29.94 in 10.0 mi ESE 3.5 mph - N/A   Scattered Clouds
2:55 AM 64.4 °F 59.0 °F 83% 29.95 in 10.0 mi East 3.5 mph - N/A   Scattered Clouds
3:15 AM 64.4 °F 59.0 °F 83% 29.95 in 10.0 mi ESE 3.5 mph - N/A   Scattered Clouds
3:35 AM 64.4 °F 59.0 °F 83% 29.95 in 10.0 mi ESE 3.5 mph - N/A   Scattered Clouds
3:55 AM 64.4 °F 59.0 °F 83% 29.95 in 10.0 mi ESE 4.6 mph - N/A   Clear
4:15 AM 64.4 °F 59.0 °F 83% 29.95 in 10.0 mi SE 4.6 mph - N/A   Scattered Clouds
4:35 AM 62.6 °F 59.0 °F 88% 29.95 in 10.0 mi ESE 4.6 mph - N/A   Clear
4:55 AM 64.4 °F 59.0 °F 83% 29.95 in 10.0 mi East 4.6 mph - N/A   Clear
5:15 AM 64.4 °F 59.0 °F 83% 29.95 in 10.0 mi East 3.5 mph - N/A   Scattered Clouds
5:35 AM 64.4 °F 59.0 °F 83% 29.95 in 10.0 mi Calm Calm - N/A   Scattered Clouds
5:55 AM 62.6 °F 59.0 °F 88% 29.97 in 10.0 mi Calm Calm - N/A   Scattered Clouds
6:15 AM 62.6 °F 59.0 °F 88% 29.97 in 10.0 mi ESE 3.5 mph - N/A   Clear
6:35 AM 62.6 °F 59.0 °F 88% 29.98 in 10.0 mi East 3.5 mph - N/A   Clear
6:55 AM 62.6 °F 59.0 °F 88% 29.99 in 10.0 mi East 3.5 mph - N/A   Clear
7:15 AM 64.4 °F 59.0 °F 83% 30.00 in 10.0 mi ENE 3.5 mph - N/A   Clear
7:35 AM 64.4 °F 59.0 °F 83% 30.00 in 10.0 mi ENE 4.6 mph - N/A   Clear
7:55 AM 64.4 °F 60.8 °F 88% 30.00 in 10.0 mi ENE 5.8 mph - N/A   Clear
8:15 AM 66.2 °F 60.8 °F 83% 30.01 in 10.0 mi ENE 4.6 mph - N/A   Scattered Clouds
8:35 AM 68.0 °F 60.8 °F 78% 30.01 in 10.0 mi ENE 6.9 mph - N/A   Mostly Cloudy
8:55 AM 68.0 °F 60.8 °F 78% 30.02 in 10.0 mi East 5.8 mph - N/A   Overcast
9:15 AM 68.0 °F 60.8 °F 78% 30.02 in 10.0 mi East 6.9 mph - N/A   Mostly Cloudy
9:35 AM 69.8 °F 62.6 °F 78% 30.03 in 10.0 mi East 6.9 mph - N/A   Mostly Cloudy
9:55 AM 69.8 °F 62.6 °F 78% 30.03 in 10.0 mi East 10.4 mph - N/A   Scattered Clouds
10:15 AM 69.8 °F 62.6 °F 78% 30.03 in 10.0 mi East 9.2 mph - N/A Thunderstorm Scattered Clouds
10:35 AM 71.6 °F 64.4 °F 78% 30.03 in 10.0 mi East 10.4 mph - N/A   Scattered Clouds
10:55 AM 73.4 °F 64.4 °F 73% 30.03 in 10.0 mi ESE 10.4 mph 17.3 mph N/A   Clear
11:15 AM 73.4 °F 62.6 °F 69% 30.04 in 10.0 mi SE 13.8 mph 17.3 mph N/A   Scattered Clouds
11:35 AM 73.4 °F 62.6 °F 69% 30.05 in 10.0 mi SSE 13.8 mph - N/A   Scattered Clouds
11:55 AM 73.4 °F 62.6 °F 69% 30.05 in 10.0 mi SSE 13.8 mph 17.3 mph N/A   Scattered Clouds
12:15 PM 71.6 °F 62.6 °F 73% 30.05 in 10.0 mi SSE 12.7 mph - N/A   Mostly Cloudy
12:35 PM 73.4 °F 62.6 °F 69% 30.04 in 10.0 mi SE 11.5 mph - N/A   Mostly Cloudy
12:55 PM 71.6 °F 62.6 °F 73% 30.04 in 10.0 mi SE 11.5 mph - N/A   Mostly Cloudy
1:15 PM 71.6 °F 62.6 °F 73% 30.04 in 10.0 mi SE 9.2 mph - N/A   Mostly Cloudy
1:35 PM 71.6 °F 62.6 °F 73% 30.04 in 10.0 mi ESE 6.9 mph - N/A   Mostly Cloudy
1:55 PM 73.4 °F 62.6 °F 69% 30.04 in 10.0 mi SE 18.4 mph 23.0 mph N/A   Scattered Clouds
2:15 PM 71.6 °F 62.6 °F 73% 30.04 in 10.0 mi SE 13.8 mph - N/A   Scattered Clouds
2:35 PM 73.4 °F 62.6 °F 69% 30.04 in 10.0 mi ESE 12.7 mph - N/A   Scattered Clouds
2:55 PM 71.6 °F 62.6 °F 73% 30.04 in 10.0 mi ESE 10.4 mph 18.4 mph N/A   Clear
3:15 PM 73.4 °F 62.6 °F 69% 30.04 in 10.0 mi ESE 13.8 mph 17.3 mph N/A   Clear
3:35 PM 71.6 °F 62.6 °F 73% 30.04 in 10.0 mi SE 10.4 mph - N/A   Clear
3:55 PM 73.4 °F 62.6 °F 69% 30.03 in 10.0 mi SE 9.2 mph - N/A   Clear
4:15 PM 71.6 °F 62.6 °F 73% 30.03 in 10.0 mi SE 8.1 mph - N/A   Clear
4:35 PM 73.4 °F 62.6 °F 69% 30.03 in 10.0 mi ESE 10.4 mph - N/A   Clear
4:55 PM 73.4 °F 60.8 °F 65% 30.02 in 10.0 mi ESE 11.5 mph - N/A   Clear
5:15 PM 71.6 °F 62.6 °F 73% 30.02 in 10.0 mi ESE 10.4 mph - N/A   Clear
5:35 PM 71.6 °F 62.6 °F 73% 30.02 in 10.0 mi ESE 9.2 mph - N/A   Clear
5:55 PM 71.6 °F 62.6 °F 73% 30.02 in 10.0 mi ESE 10.4 mph - N/A   Light Drizzle
6:15 PM 69.8 °F 62.6 °F 78% 30.03 in 10.0 mi ESE 9.2 mph - N/A   Light Drizzle
6:35 PM 69.8 °F 62.6 °F 78% 30.03 in 10.0 mi ESE 5.8 mph - N/A   Light Drizzle
6:55 PM 69.8 °F 62.6 °F 78% 30.03 in 10.0 mi ESE 4.6 mph - N/A Rain Light Rain
7:15 PM 68.0 °F 62.6 °F 83% 30.04 in 10.0 mi SE 3.5 mph - N/A   Drizzle
7:35 PM 68.0 °F 62.6 °F 83% 30.04 in 10.0 mi ESE 3.5 mph - N/A   Drizzle
7:55 PM 68.0 °F 62.6 °F 83% 30.03 in 10.0 mi East 3.5 mph - N/A   Light Drizzle
8:15 PM 68.0 °F 62.6 °F 83% 30.04 in 10.0 mi NE 4.6 mph - N/A   Scattered Clouds
8:35 PM 68.0 °F 64.4 °F 88% 30.04 in 7.0 mi Calm Calm - N/A   Scattered Clouds
8:55 PM 66.2 °F 64.4 °F 94% 30.04 in 7.0 mi Calm Calm - N/A   Scattered Clouds
9:15 PM 66.2 °F 62.6 °F 88% 30.04 in 7.0 mi Calm Calm - N/A   Clear
9:35 PM 66.2 °F 62.6 °F 88% 30.05 in 10.0 mi Calm Calm - N/A   Clear
9:55 PM 66.2 °F 62.6 °F 88% 30.05 in 10.0 mi Calm Calm - N/A   Clear
10:15 PM 66.2 °F 62.6 °F 88% 30.05 in 7.0 mi Calm Calm - N/A   Mostly Cloudy
10:35 PM 64.4 °F 62.6 °F 94% 30.06 in 7.0 mi Calm Calm - N/A   Mostly Cloudy
10:55 PM 66.2 °F 64.4 °F 94% 30.06 in 5.0 mi Calm Calm - 0.01 in Rain Rain
11:15 PM 66.2 °F 64.4 °F 94% 30.05 in 5.0 mi East 4.6 mph - N/A   Mostly Cloudy
11:35 PM 66.2 °F 62.6 °F 88% 30.05 in 10.0 mi ENE 4.6 mph - N/A   Overcast
11:55 PM 66.2 °F 62.6 °F 88% 30.05 in 10.0 mi East 4.6 mph - N/A   Mostly Cloudy